Location: ????????
(55.6189°N, 38.3031°E)
Time: 02:38:16
(UTC+00:00)

Lacrosse 5 rocket - Pass Details

Date: 15 November 2019
Orbit: 460 x 637 km, 57.0° (Epoch: 07 December)

Event Time Altitude Azimuth Distance (km) Brightness Sun altitude
Exits shadow 03:45:51 15° 286° (WNW) 1,330 2.6 -10.4°
Maximum altitude 03:48:44 79° 201° (SSW) 477 1.0 -10.0°
Drops below altitude 10° 03:52:20 10° 114° (ESE) 1,609 5.4 -9.5°
Sets 03:54:27 0° 113° (ESE) 2,487 7.1 -9.2°
